This demonstration page uses our WeatherBlox Daily Observations layout. Learn more.

Left ArrowRight Arrow

Hourly Observations for September 15, 2019

Temp ( °F °C ) Dew Point ( °F °C ) Humidity (%) Winds ( mph kmh ) Pressure ( in mb ) Visibility ( mi km ) Precip ( " mm )
12:59 am 00:59 Cloudy 71 21.7 71 21.7 100 100 Calm 30.19 1022 9 14 0.00 0.00
1:59 am 01:59 Cloudy 71 21.7 71 21.7 100 100 Calm 30.18 1022 7 11 0.00 0.00
2:59 am 02:59 Cloudy 71 21.7 71 21.7 100 100 Calm 30.17 1022 8 13 0.00 0.00
3:59 am 03:59 Cloudy 70 21.1 70 21.1 100 100 Calm 30.16 1021 7 11 0.00 0.00
4:59 am 04:59 Cloudy 71 21.7 70 21.1 96 96 Calm 30.16 1021 7 11 0.00 0.00
5:59 am 05:59 Mostly Cloudy 70 21.1 70 21.1 100 100 Calm 30.16 1021 8 13 0.00 0.00
6:59 am 06:59 Mostly Cloudy 70 21.1 70 21.1 100 100 Calm 30.16 1021 7 11 0.00 0.00
7:59 am 07:59 Mostly Cloudy 74 23.3 73 22.8 97 97 VRB 3 6 30.17 1022 8 13 0.00 0.00
8:59 am 08:59 Sunny 77 25 73 22.8 88 88 SE 7 11 30.18 1022 10 16 0.00 0.00
9:59 am 09:59 Mostly Cloudy 80 26.7 72 22.2 76 76 VRB 5 7 30.18 1022 10 16 0.00 0.00
10:59 am 10:59 Mostly Cloudy 82 27.8 72 22.2 72 72 Calm 30.16 1021 10 16 0.00 0.00
11:59 am 11:59 Partly Cloudy 83 28.3 72 22.2 70 70 N 8 13 30.15 1021 10 16 0.00 0.00
12:59 pm 12:59 Mostly Cloudy 83 28.3 71 21.7 67 67 ENE 9 15 30.15 1021 10 16 0.00 0.00
1:59 pm 13:59 Mostly Cloudy 82 27.8 72 22.2 72 72 ENE 8 13 30.14 1021 10 16 0.00 0.00
2:59 pm 14:59 Mostly Cloudy 83 28.3 69 20.6 63 63 ENE 8 13 30.11 1020 10 16 0.00 0.00
3:59 pm 15:59 Mostly Cloudy 83 28.3 72 22.2 70 70 NE 8 13 30.10 1019 10 16 0.00 0.00
4:59 pm 16:59 Mostly Cloudy 82 27.8 69 20.6 65 65 ENE 8 13 30.09 1019 10 16 0.00 0.00
5:59 pm 17:59 Mostly Cloudy 80 26.7 71 21.7 74 74 ENE 8 13 30.10 1019 10 16 0.00 0.00
6:59 pm 18:59 Mostly Cloudy 78 25.6 72 22.2 82 82 E 7 11 30.10 1019 10 16 0.00 0.00
7:59 pm 19:59 Mostly Cloudy 76 24.4 73 22.8 91 91 E 5 7 30.10 1019 10 16 0.00 0.00
8:59 pm 20:59 Mostly Cloudy 75 23.9 72 22.2 90 90 SE 3 6 30.10 1019 10 16 0.00 0.00
9:59 pm 21:59 Partly Cloudy 73 22.8 72 22.2 96 96 Calm 30.11 1020 10 16 0.00 0.00
10:59 pm 22:59 Partly Cloudy 72 22.2 71 21.7 97 97 SE 3 6 30.10 1019 10 16 0.00 0.00
11:59 pm 23:59 Partly Cloudy 72 22.2 72 22.2 100 100 Calm 30.10 1019 9 14 0.00 0.00

Powered by AerisWeather